Other Public Products
Issued by NWS Charleston, SC

Current Version | Previous Version | Text Only | Print | Product List | Glossary On
Versions: 1 2 3 4 5 6 7 8 9 10 11 12 13 14 15 16 17 18 19 20 21 22 23 24 25 26 27 28 29 30 31 32 33 34 35 36 37 38 39 40 41 42 43 44 45 46 47 48 49 50
000 FPUS82 KCHS 182312 OPUCHS TEST...KCHS/KSAV Gateway Observations...TEST National Weather Service Charleston SC 700 PM EDT WED OCT 18 2017 NOTE: "fair" indicates few or no clouds below 12,000 feet with no significant weather and/or obstructions to visibility. SCZ050-WAZ558-NCZ071-TXZ119-213-PAZ071-DCZ001-FLZ074-172-MI076- NYZ176-178-MAZ016-IL014-TNZ027-NJZ106-GAZ044-MD014-190000- ...Gateway Observations for Charleston International... CITY SKY/WX TMP DP RH WIND PRES REMARKS Chas Airport CLEAR 67 58 72 N7 30.25R Seattle CLOUDY 62 54 74 S21G37 29.62F Charlotte PTCLDY 61 40 45 VRB3 30.31R Dallas DFW MOCLDY 81 36 19 S14G20 30.04F Dallas Love MOCLDY 82 38 20 S10 30.06S Philladelphia PTCLDY 67 45 45 SW10 30.29R Wash National PTCLDY 63 47 55 S8 30.30F Baltimore PTCLDY 58 47 66 SW3 30.29S Miami CLOUDY 81 74 79 NE8 29.98R Detroit PTCLDY 63 41 44 S10 30.13S Newark CLEAR 66 46 48 SW8 30.26R Laguardia CLEAR 66 51 58 S9 30.26R J F K CLEAR 63 55 75 S13 30.28R Boston Logan PTCLDY 67 40 37 SW6 30.25R Ft. Lauderdale MOCLDY 80 74 81 NE7 29.98R Chicago O`Hare PTCLDY 68 41 37 S15 30.01S Chicago Midway PTCLDY 69 40 34 S13 30.02F Houston Bush PTCLDY 79 60 52 SE9 30.09S Houston Hobby PTCLDY 80 60 50 E7 30.08F Nashville PTCLDY 65 41 41 S7 30.23S Atlanta CLEAR 65 41 41 E7 30.26S $$ GAZ044-118-TXZ119-213-NCZ071-DCZ001-MDZ014-506-PAZ021-071-NJZ106- NYZ176-178-MAZ106-OHZ011-021-055-MIZ076-KYZ091-ILZ014-INZ047- MNZ060-ONZ431-190000- ...Gateway Observations for Savannah International... CITY SKY/WX TMP DP RH WIND PRES REMARKS Savannah Arpt PTCLDY 71 60 68 N6 30.23R Atlanta CLEAR 65 41 41 E7 30.26S Charlotte PTCLDY 61 40 45 VRB3 30.31R Dallas DFW MOCLDY 81 36 19 S14G20 30.04F Houston Bush PTCLDY 79 60 52 SE9 30.09S Wash National PTCLDY 63 47 55 S8 30.30F Wash Dulles PTCLDY 60 44 55 SE5 30.29S Baltimore PTCLDY 58 47 66 SW3 30.29S Philadelphia PTCLDY 67 45 45 SW10 30.29R Newark CLEAR 66 46 48 SW8 30.26R Laguardia CLEAR 66 51 58 S9 30.26R J F K CLEAR 63 55 75 S13 30.28R Boston PTCLDY 67 40 37 SW6 30.25R Pittsburg PTCLDY 65 41 41 CALM 30.23S Akron PTCLDY 58 40 51 S8 30.21S Cleveland PTCLDY 63 41 44 S7 30.20R Cincinnati PTCLDY 63 44 50 SW5 30.21S Columbus CLEAR 61 40 45 S6 30.21R Detroit PTCLDY 63 41 44 S10 30.13S Chicago O`Hare PTCLDY 68 41 37 S15 30.01S Minneapolis MOCLDY 67 27 22 W15 29.88R Indianapolis PTCLDY 64 43 46 S13 30.16F Toronto Canada CLEAR 63 39 42 SW10 30.13R $$

USA.gov is the U.S. government's official web portal to all federal, state and local government web resources and services.